Weather History for Avalon, CA

Change the Weather History Date:

Wednesday, January 25, 2012

  Actual Average Record
Temperature  
Mean Temperature 66 °F -  
Max Temperature 73 °F 57 °F 75 °F (2003)
Min Temperature 60 °F 47 °F 43 °F (2001)
Cooling Degree Days 2    
Growing Degree Days 16 (Base 50)    
Moisture  
Dew Point 31 °F    
Average Humidity 26    
Maximum Humidity 30    
Minimum Humidity 22    
Precipitation  
Precipitation 0.00 in - - ()
Sea Level Pressure  
Sea Level Pressure 30.16 in    
Wind  
Wind Speed 6 mph (NNW)    
Max Wind Speed 13 mph    
Max Gust Speed 18 mph    
Visibility 10 miles    
Events      
Averages and records for this station are not official NWS values.
T = Trace of Precipitation, MM = Missing Value Source: NWS Daily Summary

Daily Weather History Graph

Daily Weather History Graph

Search for Another Location

Airport:

Trip Planner

Search our weather history database for the weather conditions in past years. The results will help you decide how hot, cold, wet, or windy it might be!

Date:

Astronomy

Jan. 25, 2012 Rise Set
Actual Time 6:54 AM PST 5:18 PM PST
Civil Twilight 6:27 AM PST 5:44 PM PST
Nautical Twilight 5:57 AM PST 6:14 PM PST
Astronomical Twilight 5:28 AM PST 6:44 PM PST
Moon 8:06 AM PST (1/25) 8:04 PM PST (1/25)
Length of Visible Light 11h 16m
Length of Day
10h 24m
Waxing Crescent, 7% of the Moon is Illuminated
Jan 25
Waxing Crescent
Jan 30
First Quarter
Feb 7
Full
Feb 14
Last Quarter
Feb 21
New

Hourly Weather History & Observations

Time (PST) Temp. Dew Point Humidity Pressure Visibility Wind Dir Wind Speed Gust Speed Precip Events Conditions
12:51 AM 60.1 °F 25.0 °F 26% 30.21 in 10.0 mi ENE 6.9 mph - N/A   Clear
1:51 AM 61.0 °F 24.1 °F 24% 30.25 in 10.0 mi North 4.6 mph - N/A   Clear
2:51 AM 61.0 °F 23.0 °F 23% 30.21 in 10.0 mi NE 4.6 mph - N/A   Clear
3:51 AM 61.0 °F 28.0 °F 29% 30.19 in 10.0 mi NW 3.5 mph - N/A   Clear
5:51 AM 60.1 °F 25.0 °F 26% 30.21 in 10.0 mi NNW 6.9 mph - N/A   Clear
6:51 AM 63.0 °F 25.0 °F 24% 30.19 in 10.0 mi WNW 4.6 mph - N/A   Clear
7:51 AM 61.0 °F 28.0 °F 29% 30.21 in 10.0 mi NNW 9.2 mph - N/A   Clear
8:51 AM 66.0 °F 30.0 °F 26% 30.20 in 10.0 mi NE 4.6 mph - N/A   Clear
9:51 AM 66.9 °F 30.9 °F 26% 30.22 in 10.0 mi NE 6.9 mph - N/A   Clear
10:51 AM 71.1 °F 32.0 °F 24% 30.19 in 10.0 mi East 12.7 mph - N/A   Clear
11:51 AM 71.1 °F 33.1 °F 25% 30.17 in 10.0 mi ENE 12.7 mph 18.4 mph N/A   Clear
12:51 PM 72.0 °F 33.1 °F 24% 30.14 in 10.0 mi Variable 6.9 mph - N/A   Clear
1:51 PM 73.0 °F 34.0 °F 24% 30.13 in 10.0 mi NE 8.1 mph - N/A   Clear
2:51 PM 73.0 °F 32.0 °F 22% 30.12 in 10.0 mi NW 6.9 mph - N/A   Clear
3:51 PM 71.1 °F 37.9 °F 30% 30.12 in 10.0 mi West 5.8 mph - N/A   Clear
4:51 PM 69.1 °F 34.0 °F 27% 30.12 in 10.0 mi West 9.2 mph - N/A   Clear
5:51 PM 70.0 °F 33.1 °F 26% 30.11 in 10.0 mi WNW 8.1 mph - N/A   Clear
6:51 PM 68.0 °F 35.1 °F 30% 30.12 in 10.0 mi NW 5.8 mph - N/A   Clear
7:51 PM 69.1 °F 35.1 °F 29% 30.13 in 10.0 mi NW 9.2 mph - N/A   Clear
8:51 PM 70.0 °F 34.0 °F 27% 30.12 in 10.0 mi NW 4.6 mph - N/A   Clear
9:51 PM 69.1 °F 35.1 °F 29% 30.12 in 10.0 mi Calm Calm - N/A   Clear
10:51 PM 73.0 °F 33.1 °F 23% 30.11 in 10.0 mi SSW 3.5 mph - N/A   Clear
11:51 PM 71.1 °F 33.1 °F 25% 30.11 in 10.0 mi WSW 3.5 mph - N/A   Clear